Regional Weather Roundup
Issued by NWS Upton, NY

Current Version | Previous Version | Text Only | Print | Product List | Glossary Off
Versions: 1 2 3 4 5 6 7 8 9 10 11 12 13 14 15 16 17 18 19 20 21 22 23 24 25 26 27 28 29 30 31 32 33 34 35 36 37 38 39 40 41 42 43 44 45 46 47 48 49 50
093 ASUS41 KOKX 211609 RWROKX REGIONAL WEATHER ROUNDUP NATIONAL WEATHER SERVICE NEW YORK NY 1200 PM EDT MON AUG 21 2017 NOTE: "FAIR" INDICATES FEW OR NO CLOUDS BELOW 12,000 FEET WITH NO SIGNIFICANT WEATHER AND/OR OBSTRUCTIONS TO VISIBILITY. NYZ071-072-176-178-NJZ106-104-211700- NEW YORK CITY METRO AREA CITY SKY/WX TMP DP RH WIND PRES REMARKS Central Park SUNNY 83 62 49 VRB6 30.21F Bronx Bot Gard N/A 84 63 48 SW3 30.21R LaGuardia APRT PTSUNNY 86 62 44 W14G20 30.17F Kennedy INTL MOSUNNY 84 67 56 SW9 30.20F Breezy Point N/A 77 N/A N/A SW7 N/A Newark/Liberty PTSUNNY 85 62 46 SW8 30.19F Teterboro SUNNY 85 60 42 SW12G17 30.17F $$ NYZ177-179-078>081-211700- LONG ISLAND NEW YORK CITY SKY/WX TMP DP RH WIND PRES REMARKS Jones Beach N/A 77 N/A N/A W6G12 N/A Matinecock PT N/A 79 N/A N/A SW3 N/A Farmingdale MOSUNNY 84 62 47 W8 30.19F MacArthur/ISP PTSUNNY 86 63 45 W8 30.18F Shirley CLOUDY 86 66 51 VRB7 30.19S Mt Sinai Harb N/A 82 N/A N/A W3 N/A Westhampton CLOUDY 84 61 45 W10 30.20S East Hampton FAIR 81 65 59 W5 30.18S Montauk N/A 80 67 64 W5 30.20R $$ NYZ052-065-067-211700- HUDSON VALLEY CITY SKY/WX TMP DP RH WIND PRES REMARKS White Plains SUNNY 83 61 47 VRB7 30.19F Larchmont Harb N/A 81 N/A N/A SW6 N/A Croton On Huds N/A 82 N/A N/A S5 N/A Newburgh MOSUNNY 81 68 65 W7 30.20F Montgomery SUNNY 82 67 60 SW12 30.17F Poughkeepsie SUNNY 81 64 56 VRB6 30.16F Albany PTSUNNY 79 64 60 S8 30.16F $$ NJZ001-105-106-008-010-013-015-019>022-104-211700- NEW JERSEY CITY SKY/WX TMP DP RH WIND PRES REMARKS Newark/Liberty PTSUNNY 85 62 46 SW8 30.19F Teterboro SUNNY 85 60 42 SW12G17 30.17F Caldwell SUNNY 82 63 52 VRB6 30.19F Somerville SUNNY 84 68 58 S6 30.17F Linden FAIR 83 60 45 W3 30.19 Perth Amboy N/A 81 N/A N/A W7 N/A Sussex SUNNY 81 65 58 SW9 30.19F Andover N/A 81 62 52 VRB5 30.20F Trenton SUNNY 83 63 50 SW8 30.20F Millville MOSUNNY 84 69 60 VRB5 30.21S Atlantic City MOSUNNY 84 64 50 VRB3 30.22S Wrightstown MOSUNNY 83 67 58 SW8 30.18S Toms River PTSUNNY 86 64 47 S7 30.22S Belmar SUNNY 83 62 49 VRB5 30.22S $$ PAZ047>061-062-071-211700- EASTERN PENNSYLVANIA CITY SKY/WX TMP DP RH WIND PRES REMARKS Philadelphia PTSUNNY 84 65 52 S6 30.20F Allentown PTSUNNY 83 69 62 SW8 30.18F Scranton CLOUDY 82 66 58 W7 30.19F $$ CTZ002-004>006-009-010-012-RIZ004-006-007-MAZ004-011-015-211700- SOUTHERN NEW ENGLAND IN CT CITY SKY/WX TMP DP RH WIND PRES REMARKS Bradley INTL CLOUDY 83 65 54 S6 30.16F Hartford MOSUNNY 84 64 50 S7 30.16F Danbury MOSUNNY 81 66 60 SW9 30.20F Wtrbury/Oxford CLOUDY 78 66 66 VRB6 30.21F Norwalk Harbor N/A 75 N/A N/A S9 N/A Bridgeport PTSUNNY 80 65 59 SW12 30.18F Meriden PTSUNNY 81 66 60 S7 30.17F New Haven PTSUNNY 78 65 63 S8 30.18F Chester FAIR 82 66 57 VRB7 30.19F Groton CLOUDY 79 67 66 SW9 30.17S Wilimantic CLOUDY 83 64 52 W9 30.17S IN RI CITY SKY/WX TMP DP RH WIND PRES REMARKS Providence PTSUNNY 84 61 45 SW8 30.17S Block Island CLOUDY 77 66 68 W8 30.19S Westerly CLOUDY 80 66 62 SW9 30.19S IN MA CITY SKY/WX TMP DP RH WIND PRES REMARKS Boston PTSUNNY 79 61 53 SE8 30.14S Worcester MOSUNNY 79 58 48 W10 30.20R Westfield MOSUNNY 82 66 58 S5 30.16F Provincetown MOSUNNY 77 62 59 W8 30.16S Nantucket CLOUDY 77 66 68 SW12 30.16S $$ ANZ330-335-338-340-345-350-353-355-211700- COASTAL MARINE OBSERVATIONS STATION/POSITION TIME SKY/WX TEMP WIND PRES VSBY WAVE AIR SEA DIR/SP/G HT/PER (UTC) (F) (DEG/KT/KT) (MB) (MI) (FT/S) NY HARB ENTRANCE 1550 77 77 200/ 4/ 4 1022.2 2/ 8 GREAT SOUTH BAY 1530 77 79 230/ 8/ 10 N/A 23 SSW MONTAUK P 1550 74 73 1022.6 2/ 8 15 E BARNEGAT LI 1530 78 N/A 2/ 7 HUDSON CANYON 1550 76 76 260/ 6/ 6 1022.6 2/ 9 KINGS POINT 1548 80 74 320/ 5/ 6 1022.1 EXECUTION ROCKS NOT AVBL WESTERN LI SOUND NOT AVBL CENTRAL LI SOUND NOT AVBL EASTERN LI SOUND NOT AVBL ROBBINS REEF 1548 270/ 8/ 10 1023.0 $$ >>>>>>>>>>>>>>>>>>>>>>>>>>>> KEY <<<<<<<<<<<<<<<<<<<<<<<<<<< > < > SKY/WX - Sky Condition/Present Weather < > TMP - Temperature in Fahrenheit < > DP - Dew Point in Fahrenheit < > RH - Relative Humidity in Percent < > WIND - Direction (from) and Speed in MPH < > PRES - Mean Sea Level Pressure (inches of Hg) < > WCI - Wind Chill Index < > VSB - VISIBILITY IN MILES < > HX - HEAT INDEX < > TC - TEMPERATURE IN CELSIUS < > VRB - VARIABLE WIND DIRECTION < > < >>>>>>>>>>>>>>>>>>>>>>>>>>>> KEY <<<<<<<<<<<<<<<<<<<<<<<<<<<

USA.gov is the U.S. government's official web portal to all federal, state and local government web resources and services.